Wind_Speed
53 55 54 55 60 64 67 69 70 71 70 71 74 74 77 79 80 82 85 87 91 96 101 102 103 105 109 113 113 116 118 116 114 112 112 114 118 119 118 115 114 114 115 115
26 30 32 40 48 52 58 63 65 67 66 67 73 76 79 81 83 83 84 86 86 85 85 86 86 86 88 92 95 97 100 102 105 105 105 107 108 110 113 113 115 116 118 115
23 25 23 26 28 29 33 36 36 37 40 41 47 47 49 54 56 57 58 63 65 66 67 69 70 72 76 82 88 90 94 98 100 102 103 102 104 106 109 112 113 115 117 115
31 27 27 28 30 29 31 30 30 32 34 33 33 33 39 45 44 49 51 52 53 55 56 57 58 58 60 63 66 69 72 75 78 84 89 94 98 101 107 112 115 113 114 113
37 34 34 36 33 31 36 34 35 36 35 34 35 35 37 42 44 50 50 51 50 53 53 54 56 58 62 65 66 66 67 67 70 73 76 77 79 83 90 96 101 107 114 120
44 40 41 42 40 39 40 41 41 41 42 38 43 41 40 44 46 55 55 56 54 56 58 58 58 59 61 65 67 68 69 71 72 72 72 74 76 78 81 83 88 91 96 100
50 50 51 50 48 47 47 47 48 48 45 43 46 43 45 49 53 55 59 60 59 62 62 63 64 64 64 67 69 72 72 73 74 74 74 74 76 79 82 85 85 86 86 87
59 58 56 55 54 55 55 56 55 53 50 49 51 50 53 54 57 59 60 64 66 67 68 69 70 70 70 70 73 74 75 75 76 76 78 78 78 81 84 85 87 88 90 90
65 66 62 61 61 61 63 63 63 58 59 57 58 58 59 61 61 62 66 68 70 72 74 75 75 75 77 77 78 78 78 78 79 78 79 81 82 82 85 88 87 89 92 92
69 69 69 69 67 68 69 68 67 68 63 60 62 65 66 64 64 64 70 71 74 76 78 78 78 80 82 84 84 82 82 82 82 82 82 83 84 86 88 91 91 94 92 95
75 74 74 74 74 75 75 73 73 72 68 67 66 67 68 68 68 70 73 73 76 79 80 82 83 83 85 87 86 84 86 87 86 87 87 87 89 89 90 93 95 94 94 95
82 79 76 77 79 79 79 79 79 78 74 74 73 70 77 78 78 80 79 80 82 83 84 86 86 87 89 86 85 85 87 89 89 91 92 92 92 93 94 94 96 96 95 94
87 84 81 79 82 82 81 82 83 84 81 78 82 80 82 83 85 84 84 87 87 88 89 90 89 90 88 86 84 84 84 85 89 89 90 94 95 97 97 97 99 97 94 96
90 92 87 85 86 86 84 86 88 89 85 86 86 85 91 89 87 88 91 93 94 92 89 90 91 87 83 82 81 81 83 83 85 86 87 92 96 97 93 91 90 86 79 77
89 88 92 93 91 89 87 89 92 91 92 89 89 89 93 94 95 96 99 98 92 89 89 86 82 80 79 79 78 77 81 80 80 82 83 84 84 79 80 78 74 71 68 67
81 81 82 87 90 89 91 94 93 92 93 92 93 95 97 98 101 100 96 92 88 84 81 79 77 74 72 72 75 76 77 75 73 71 68 68 65 61 62 67 60 63 62 61
67 70 70 77 82 88 92 93 95 95 96 97 98 101 101 95 90 87 87 82 78 76 76 73 72 71 70 71 73 75 69 61 62 55 54 53 51 53 55 56 52 55 53 55
54 57 56 61 63 70 76 80 82 83 83 83 83 81 78 76 77 79 78 71 71 71 72 71 70 70 71 70 66 58 50 51 49 44 46 47 47 48 47 43 41 44 44 48
40 41 44 47 51 55 60 62 63 63 64 64 65 65 65 65 65 72 71 69 68 68 69 69 68 64 61 56 49 41 44 38 37 37 37 37 37 37 36 33 34 34 34 38
31 33 36 39 40 41 45 47 49 50 53 52 53 55 56 58 58 66 68 68 68 64 57 54 56 55 48 42 32 32 32 27 27 28 30 28 26 26 27 30 32 32 32 34
28 30 31 32 34 36 38 37 40 42 44 46 47 48 51 54 57 59 62 58 54 51 44 32 34 42 30 24 23 22 21 21 17 13 15 15 15 17 19 21 24 27 31 32
23 25 26 26 26 28 31 33 35 36 38 42 46 48 51 55 51 43 39 37 37 35 25 18 19 15 14 7 2 4 7 9 12 10 11 12 12 12 13 14 14 15 18 23
19 21 22 23 23 26 28 30 32 36 39 39 44 47 42 35 26 19 18 16 13 11 6 5 5 8 7 6 7 8 6 8 12 15 17 17 18 19 20 20 20 19 17 17
16 17 18 20 22 24 28 30 31 33 39 42 35 28 18 9 5 9 13 15 17 18 19 17 18 17 15 12 11 11 12 11 14 15 14 17 20 23 24 26 27 26 25 24
14 15 18 20 23 26 27 28 31 37 34 26 16 5 9 16 22 26 29 28 29 33 32 30 26 23 23 22 15 14 18 22 24 23 22 20 18 19 20 23 27 28 29 28
15 18 20 22 25 25 26 31 35 27 18 4 12 27 28 27 33 32 32 33 39 38 35 33 33 31 30 29 28 26 25 26 27 20 16 16 17 19 20 20 22 25 28 29
Wind_Direction
244 245 246 247 246 247 249 251 252 253 253 255 257 258 258 261 261 261 261 261 262 263 265 265 263 262 262 264 264 264 262 260 260 262 263 263 265 266 267 267 267 267 266 265
238 240 239 241 247 250 251 252 254 256 257 258 258 258 259 261 262 263 264 263 263 264 265 265 265 264 264 263 261 261 260 260 260 260 260 261 262 264 265 265 266 266 264 263
240 237 232 236 241 239 244 246 250 253 251 251 257 259 261 262 264 265 265 265 265 265 265 266 266 265 265 265 264 264 263 262 262 262 262 261 261 262 263 264 263 263 264 264
250 247 245 241 244 248 248 248 252 253 257 257 260 260 264 263 268 268 269 271 272 273 272 272 272 271 271 270 269 269 268 268 267 266 265 263 262 261 261 262 263 264 263 262
249 251 252 255 251 248 254 254 252 251 254 251 256 249 256 269 271 268 269 270 272 272 275 275 276 276 276 275 275 274 273 272 270 268 268 268 267 266 264 262 262 264 263 262
249 252 253 252 252 251 252 255 255 256 256 257 261 262 262 260 264 270 269 268 269 270 270 272 274 274 276 277 278 276 275 275 273 274 274 273 272 270 267 265 262 261 263 264
250 246 247 249 252 254 256 258 257 255 257 257 261 261 263 266 269 269 274 274 275 275 274 274 273 272 272 274 276 278 277 275 275 274 274 272 270 269 270 269 266 264 261 262
247 249 250 251 253 254 254 254 256 256 259 259 261 260 262 264 267 270 270 273 274 276 277 278 279 278 277 274 274 275 276 276 274 272 272 273 271 268 267 268 268 267 267 264
253 253 252 254 255 255 256 260 260 263 262 261 262 264 265 267 267 271 272 272 274 276 277 279 280 280 281 280 278 277 276 275 274 273 274 273 271 269 268 269 268 268 268 268
252 252 254 253 255 257 258 260 262 263 262 263 264 264 265 266 269 268 272 273 274 274 275 276 277 281 282 282 280 278 276 275 274 272 273 272 268 266 266 268 269 268 267 266
249 252 253 255 256 256 261 263 265 265 266 264 265 271 272 271 270 270 271 274 277 277 277 277 278 279 280 281 281 280 278 277 275 272 273 272 269 266 266 266 265 264 263 265
249 249 251 255 256 259 261 263 265 267 268 271 272 272 276 275 275 276 278 279 280 281 280 279 279 279 280 277 277 275 275 275 275 276 277 276 273 271 269 265 264 264 264 261
251 249 251 254 256 259 261 263 265 267 268 271 270 272 271 273 274 277 278 279 280 281 279 277 278 279 278 278 277 276 274 273 273 273 272 271 270 269 268 267 267 264 261 261
252 251 251 252 254 255 258 260 262 264 266 267 272 271 274 275 276 278 279 281 281 280 279 280 281 281 279 279 278 277 275 274 273 272 271 270 269 269 268 266 264 264 263 260
256 255 254 253 255 257 258 261 264 267 269 271 272 274 274 278 280 281 281 282 281 281 281 280 279 279 278 278 278 277 276 274 274 273 270 269 268 267 266 265 263 262 260 259
264 262 259 259 259 259 260 261 264 266 269 271 272 273 276 277 279 280 279 279 280 281 280 281 281 280 279 278 277 276 277 279 279 274 271 268 267 264 261 261 261 259 258 258
266 262 261 259 259 260 262 264 266 268 270 272 274 275 277 279 279 280 279 280 282 283 283 282 282 281 280 279 279 280 281 282 276 274 268 265 260 261 259 257 257 258 259 257
263 260 258 256 258 259 261 263 265 268 270 272 273 274 276 278 279 280 281 284 284 283 283 283 282 282 283 283 282 285 281 277 275 274 273 268 263 260 259 256 257 258 260 261
264 261 257 255 258 259 262 264 267 270 272 272 274 276 277 278 281 282 285 285 284 283 284 284 284 283 282 281 285 280 276 277 279 278 275 271 265 259 258 255 253 254 257 257
266 262 260 260 263 266 267 267 271 272 274 276 277 279 282 284 284 284 286 288 290 290 285 281 279 278 277 282 279 269 273 279 279 278 270 264 259 253 250 248 247 244 242 242
269 266 266 267 266 266 267 269 269 272 276 280 282 284 286 286 286 288 293 295 292 294 304 303 279 266 278 273 272 269 270 276 283 282 277 277 277 270 261 254 250 249 248 246
265 263 263 263 264 267 270 273 277 282 285 288 290 289 290 292 298 302 297 297 298 300 303 289 273 280 272 260 300 352 319 306 299 302 300 296 289 281 279 275 268 257 249 245
258 258 262 265 267 271 276 283 287 287 287 288 288 293 296 304 305 315 325 324 327 327 359 35 76 122 129 120 93 63 24 336 307 297 291 287 282 278 277 274 269 263 258 256
256 259 263 267 273 279 280 284 285 293 294 296 298 303 305 328 18 59 51 54 49 52 59 73 86 92 93 89 83 70 49 20 356 342 300 283 281 280 276 271 272 271 268 266
263 265 271 279 282 282 289 291 298 297 300 305 301 329 117 120 97 77 79 78 80 84 81 76 72 69 58 44 37 43 16 359 346 330 320 309 300 291 280 272 263 260 264 263
267 276 283 284 285 291 294 298 299 304 306 275 125 134 126 100 101 105 100 94 84 79 72 65 54 43 32 23 21 18 1 346 331 327 330 322 310 294 281 269 256 253 247 245
Height
10695 10698 10702 10706 10704 10706 10709 10711 10713 10713 10721 10725 10724 10727 10725 10720 10724 10724 10724 10726 10723 10721 10727 10734 10738 10738 10740 10743 10743 10742 10741 10740 10740 10742 10738 10738 10739 10737 10741 10740 10745 10751 10752 10754
10687 10689 10691 10690 10692 10696 10696 10698 10700 10703 10709 10710 10708 10709 10710 10706 10705 10708 10708 10705 10706 10710 10710 10710 10712 10715 10713 10712 10711 10711 10712 10711 10713 10716 10718 10715 10716 10714 10713 10718 10718 10717 10720 10725
10682 10683 10685 10684 10685 10686 10688 10688 10691 10692 10694 10695 10693 10697 10694 10691 10690 10691 10688 10687 10690 10691 10691 10692 10690 10690 10689 10688 10688 10689 10689 10689 10689 10689 10691 10695 10695 10695 10692 10687 10690 10691 10692 10698
10675 10677 10677 10678 10678 10680 10680 10681 10683 10682 10683 10685 10686 10687 10683 10679 10682 10677 10676 10675 10674 10675 10676 10675 10676 10675 10672 10671 10670 10670 10668 10666 10665 10664 10665 10669 10672 10675 10671 10666 10663 10664 10666 10670
10667 10669 10670 10669 10671 10674 10671 10673 10672 10673 10674 10676 10676 10678 10676 10671 10671 10665 10665 10665 10667 10665 10664 10662 10661 10658 10654 10652 10652 10653 10651 10649 10647 10647 10646 10647 10648 10649 10646 10646 10642 10640 10639 10642
10658 10660 10660 10660 10662 10663 10662 10662 10663 10663 10663 10667 10663 10666 10666 10663 10661 10651 10652 10652 10655 10653 10651 10650 10647 10644 10641 10633 10631 10631 10632 10630 10628 10627 10627 10627 10627 10625 10624 10625 10622 10620 10619 10619
10646 10648 10646 10648 10650 10651 10651 10651 10651 10651 10652 10655 10652 10655 10653 10649 10646 10644 10637 10637 10639 10635 10634 10633 10631 10630 10629 10624 10618 10614 10612 10611 10609 10607 10607 10607 10606 10604 10601 10599 10600 10599 10600 10602
10631 10631 10634 10637 10637 10636 10637 10637 10637 10638 10640 10642 10639 10641 10637 10636 10633 10631 10630 10623 10619 10618 10616 10614 10611 10610 10609 10609 10605 10600 10596 10592 10588 10588 10587 10586 10584 10580 10577 10575 10574 10572 10574 10576
10616 10617 10620 10621 10621 10622 10621 10622 10621 10626 10625 10628 10625 10624 10621 10619 10619 10619 10614 10610 10608 10604 10600 10595 10590 10588 10585 10583 10582 10581 10577 10572 10569 10567 10566 10565 10563 10559 10555 10552 10554 10549 10547 10543
10597 10602 10602 10603 10605 10604 10602 10605 10607 10604 10610 10612 10612 10606 10604 10606 10604 10602 10595 10593 10590 10588 10583 10580 10575 10569 10563 10558 10555 10556 10552 10549 10546 10544 10543 10541 10538 10535 10532 10529 10529 10524 10526 10521
10579 10584 10585 10586 10586 10585 10587 10589 10585 10585 10591 10591 10594 10589 10587 10584 10584 10580 10577 10576 10572 10567 10563 10560 10556 10552 10544 10536 10530 10528 10521 10519 10519 10517 10517 10515 10510 10509 10510 10506 10504 10502 10499 10502
10558 10566 10569 10568 10567 10568 10569 10569 10567 10564 10571 10572 10571 10577 10566 10562 10559 10555 10554 10551 10547 10542 10539 10534 10531 10527 10521 10517 10511 10507 10499 10494 10489 10486 10485 10481 10477 10477 10479 10478 10476 10475 10477 10480
10536 10545 10548 10551 10547 10548 10550 10548 10548 10545 10550 10558 10547 10556 10545 10542 10536 10536 10533 10528 10525 10522 10515 10509 10506 10500 10494 10490 10486 10481 10478 10473 10469 10466 10458 10450 10449 10446 10447 10445 10443 10447 10452 10453
10513 10520 10523 10528 10527 10527 10531 10529 10527 10526 10533 10533 10532 10531 10516 10516 10519 10515 10508 10502 10501 10496 10490 10483 10477 10472 10467 10462 10458 10454 10450 10446 10440 10436 10431 10422 10417 10416 10418 10416 10415 10419 10427 10431
10489 10497 10498 10504 10506 10509 10513 10509 10503 10508 10507 10511 10508 10506 10497 10493 10490 10486 10480 10476 10472 10468 10463 10457 10451 10446 10443 10438 10433 10428 10420 10418 10415 10408 10400 10393 10390 10395 10390 10389 10393 10397 10404 10406
10467 10471 10476 10480 10482 10487 10490 10486 10489 10487 10485 10488 10485 10481 10475 10472 10468 10461 10452 10451 10447 10441 10435 10430 10426 10421 10417 10413 10407 10402 10396 10393 10387 10379 10375 10371 10369 10371 10372 10370 10375 10379 10383 10386
10445 10445 10451 10455 10458 10464 10464 10465 10467 10466 10464 10464 10460 10456 10451 10447 10442 10435 10426 10426 10423 10416 10408 10404 10400 10397 10394 10389 10384 10377 10373 10370 10360 10357 10353 10352 10353 10353 10354 10356 10362 10363 10366 10368
10422 10424 10430 10433 10439 10442 10442 10444 10445 10445 10444 10442 10438 10435 10432 10427 10420 10409 10401 10405 10399 10392 10385 10382 10377 10373 10369 10364 10359 10357 10354 10348 10343 10341 10338 10337 10338 10339 10342 10345 10347 10350 10352 10355
10408 10411 10414 10419 10423 10425 10426 10428 10428 10426 10423 10422 10419 10416 10412 10408 10403 10385 10384 10380 10376 10371 10366 10361 10355 10353 10349 10344 10342 10341 10335 10334 10330 10326 10325 10325 10327 10328 10329 10331 10332 10334 10337 10341
10399 10401 10403 10406 10409 10411 10410 10411 10413 10411 10406 10407 10403 10400 10396 10391 10387 10371 10365 10359 10354 10349 10346 10343 10336 10333 10332 10331 10331 10327 10325 10323 10321 10318 10317 10316 10316 10316 10317 10318 10320 10322 10325 10329
10392 10393 10395 10397 10398 10398 10398 10400 10399 10398 10397 10393 10389 10386 10381 10375 10367 10362 10352 10343 10334 10328 10325 10322 10322 10318 10321 10321 10320 10319 10318 10316 10315 10312 10311 10309 10309 10309 10310 10311 10312 10314 10316 10319
10384 10384 10386 10388 10389 10389 10389 10389 10388 10387 10385 10381 10375 10371 10367 10359 10353 10347 10337 10331 10326 10319 10315 10310 10308 10313 10314 10314 10315 10314 10315 10314 10313 10309 10308 10306 10305 10305 10305 10305 10306 10308 10310 10312
10377 10378 10379 10380 10381 10380 10380 10380 10379 10377 10374 10370 10365 10359 10355 10350 10345 10339 10333 10327 10320 10315 10311 10309 10309 10311 10314 10314 10312 10312 10313 10311 10310 10307 10304 10302 10301 10300 10299 10299 10300 10301 10303 10305
10370 10372 10373 10373 10373 10374 10373 10372 10370 10367 10362 10357 10353 10349 10346 10343 10339 10335 10331 10328 10325 10321 10317 10316 10316 10317 10317 10315 10313 10311 10310 10310 10308 10305 10301 10298 10296 10295 10294 10293 10292 10293 10295 10297
10365 10365 10366 10367 10367 10365 10364 10362 10360 10356 10351 10347 10345 10343 10342 10340 10338 10338 10335 10334 10331 10327 10327 10327 10325 10323 10321 10318 10316 10310 10307 10304 10301 10298 10294 10291 10289 10288 10287 10287 10287 10288 10288 10290
10361 10361 10361 10360 10359 10357 10355 10352 10349 10346 10345 10343 10342 10342 10343 10343 10340 10341 10342 10343 10340 10337 10335 10333 10330 10328 10324 10320 10315 10310 10307 10302 10297 10293 10289 10285 10281 10279 10277 10276 10277 10277 10279 10281